N5MDT Weather Reports


time (UTC)temp
C
wind
direction
speed
KPH
gust
KPH
rain 1hr
cm
rain 24hr
cm
rain mn
cm
humidity
%
barometer
mb
20260507084837 18 91 0.0 3.2 0.00 0.00 0.00 83 1014.9
20260507083837 18 15 0.0 0.0 0.00 0.00 0.00 83 1014.6
20260507082837 18 355 0.0 3.2 0.00 0.00 0.00 82 1014.5
20260507081837 18 9 0.0 1.6 0.00 0.00 0.00 82 1014.4
20260507080837 18 89 1.6 3.2 0.00 0.00 0.00 82 1014.6
20260507075837 18 346 0.0 3.2 0.00 0.00 0.00 82 1014.6
20260507074837 18 351 0.0 9.7 0.00 0.00 0.00 82 1015.0
20260507073836 18 338 0.0 1.6 0.00 0.00 0.00 82 1014.9
20260507072836 18 312 1.6 6.4 0.00 0.00 0.00 81 1015.1
20260507071836 18 28 0.0 6.4 0.00 0.00 0.00 81 1014.6
20260507070836 18 333 0.0 4.8 0.00 0.00 0.00 81 1015.4
20260507065836 18 306 0.0 4.8 0.00 0.00 0.00 81 1015.3
20260507064836 18 287 0.0 4.8 0.00 0.00 0.00 81 1015.4
20260507063836 18 355 1.6 4.8 0.00 0.00 0.00 81 1015.4
20260507062836 19 331 0.0 4.8 0.00 0.00 0.00 80 1015.4
20260507061836 19 5 1.6 8.0 0.00 0.00 0.00 80 1015.4
20260507060836 19 348 0.0 4.8 0.00 0.00 0.00 80 1014.8
20260507055836 19 355 0.0 4.8 0.00 0.00 0.00 80 1015.0
20260507054836 19 349 0.0 11.3 0.00 0.00 0.00 80 1015.1
20260507053836 19 331 0.0 4.8 0.00 0.00 0.00 80 1015.2
20260507052836 19 328 0.0 8.0 0.00 0.00 0.00 79 1015.1
20260507051836 19 326 0.0 3.2 0.00 0.00 0.00 79 1014.7
20260507050835 19 19 0.0 6.4 0.00 0.00 0.00 79 1014.8
20260507045835 19 343 1.6 3.2 0.00 0.00 0.00 78 1015.0
20260507044835 19 322 0.0 4.8 0.00 0.00 0.00 78 1015.1
20260507043835 19 311 1.6 3.2 0.00 0.00 0.00 78 1015.2
20260507042836 20 321 1.6 3.2 0.00 0.00 0.00 78 1014.8
20260507041836 20 336 0.0 4.8 0.00 0.00 0.00 78 1014.9
20260507040835 20 310 0.0 4.8 0.00 0.00 0.00 77 1014.3
20260507035835 20 317 0.0 3.2 0.00 0.00 0.00 77 1014.7
20260507034836 20 5 0.0 4.8 0.00 0.00 0.00 77 1014.9
20260507033836 20 348 0.0 4.8 0.00 0.00 0.00 77 1014.7
20260507032835 20 327 0.0 3.2 0.00 0.00 0.00 77 1014.4
20260507031835 20 294 0.0 8.0 0.00 0.00 0.00 77 1014.1
20260507030835 20 346 0.0 9.7 0.00 0.00 0.00 76 1014.0
20260507025835 21 13 1.6 4.8 0.00 0.00 0.00 76 1013.6
20260507024835 21 336 0.0 4.8 0.00 0.00 0.00 76 1013.3
20260507023835 21 12 3.2 9.7 0.00 0.00 0.00 75 1013.3
20260507022835 21 306 1.6 6.4 0.00 0.00 0.00 76 1013.2
20260507021835 21 306 0.0 11.3 0.00 0.00 0.00 76 1012.8
20260507020835 22 339 0.0 6.4 0.00 0.00 0.00 75 1012.6
20260507015834 22 317 1.6 3.2 0.00 0.00 0.00 75 1012.6
20260507014834 22 320 0.0 4.8 0.00 0.00 0.00 75 1012.3
20260507013834 22 5 0.0 4.8 0.00 0.00 0.00 75 1012.2
20260507012834 22 317 0.0 3.2 0.00 0.00 0.00 75 1012.1
20260507011834 22 332 0.0 4.8 0.00 0.00 0.00 74 1011.9
20260507010834 22 298 1.6 6.4 0.00 0.00 0.00 74 1011.8
20260507005834 23 325 3.2 12.9 0.00 0.00 0.00 73 1011.7
20260507004834 23 36 0.0 6.4 0.00 0.00 0.00 73 1011.7
20260507003834 23 321 0.0 14.5 0.00 0.00 0.00 73 1011.4
20260507002833 24 307 1.6 8.0 0.00 0.00 0.00 72 1011.2
20260507001833 24 347 0.0 3.2 0.00 0.00 0.00 73 1011.0
20260507000834 25 309 0.0 8.0 0.00 0.00 0.00 73 1010.9
20260506235833 25 321 1.6 4.8 0.00 0.00 0.00 73 1010.8
20260506234833 25 325 0.0 4.8 0.00 0.00 0.00 72 1010.7
20260506233833 26 17 1.6 4.8 0.00 0.00 0.00 71 1010.7
20260506232833 26 329 1.6 8.0 0.00 0.00 0.00 71 1010.6
20260506231833 27 315 6.4 6.4 0.00 0.00 0.00 70 1010.5
20260506230833 28 314 0.0 4.8 0.00 0.00 0.00 70 1010.4
20260506225833 29 311 1.6 12.9 0.00 0.00 0.00 69 1010.3
20260506224833 30 294 8.0 14.5 0.00 0.00 0.00 72 1010.0
20260506223833 30 296 3.2 6.4 0.00 0.00 0.00 73 1009.7
20260506222832 30 300 0.0 0.0 0.00 0.00 0.00 73 1009.6
20260506221832 30 300 0.0 0.0 0.00 0.00 0.00 72 1009.4
20260506220833 30 181 0.0 0.0 0.00 0.00 0.00 71 1009.5
20260506215832 30 181 0.0 0.0 0.00 0.00 0.00 72 1009.4
20260506214832 30 181 0.0 0.0 0.00 0.00 0.00 72 1009.4
20260506213832 30 181 0.0 0.0 0.00 0.00 0.00 71 1009.5
20260506212832 30 181 0.0 0.0 0.00 0.00 0.00 70 1009.7
20260506211832 31 181 0.0 0.0 0.00 0.00 0.00 70 1009.6
20260506210832 31 181 0.0 0.0 0.00 0.00 0.00 70 1009.7
20260506205832 31 181 0.0 1.6 0.00 0.00 0.00 71 1009.7
20260506204832 30 200 0.0 1.6 0.00 0.00 0.00 71 1009.8
20260506203832 30 200 0.0 4.8 0.00 0.00 0.00 73 1009.9
20260506202832 30 155 0.0 0.0 0.00 0.00 0.00 75 1009.8
20260506201831 29 201 0.0 4.8 0.00 0.00 0.00 75 1010.2
20260506200831 29 94 4.8 9.7 0.00 0.00 0.00 75 1010.2
20260506195832 29 108 1.6 6.4 0.00 0.00 0.00 76 1010.4
20260506194831 28 140 1.6 9.7 0.00 0.00 0.00 76 1010.5
20260506193831 29 69 4.8 6.4 0.00 0.00 0.00 75 1010.5
20260506192831 29 123 1.6 4.8 0.00 0.00 0.00 74 1010.6
20260506191831 29 114 0.0 6.4 0.00 0.00 0.00 74 1010.5
20260506190831 29 104 3.2 11.3 0.00 0.00 0.00 76 1010.5
20260506185831 29 128 1.6 11.3 0.00 0.00 0.00 77 1010.6
20260506184831 28 97 0.0 11.3 0.00 0.00 0.00 78 1010.6
20260506183831 28 197 3.2 6.4 0.00 0.00 0.00 78 1010.7
20260506182831 28 134 3.2 9.7 0.00 0.00 0.00 78 1010.8
20260506181830 28 153 0.0 0.0 0.00 0.00 0.00 79 1011.0
20260506180831 27 96 0.0 0.0 0.00 0.00 0.00 79 1011.3
20260506175830 27 93 0.0 4.8 0.00 0.00 0.00 78 1011.6
20260506174830 27 203 0.0 4.8 0.00 0.00 0.00 78 1011.9
20260506173830 27 208 0.0 0.0 0.00 0.00 0.00 78 1012.1
20260506172830 28 208 0.0 0.0 0.00 0.00 0.00 79 1012.3
20260506171830 28 208 0.0 0.0 0.00 0.00 0.00 79 1012.2
20260506170830 27 208 0.0 0.0 0.00 0.00 0.00 79 1012.2
20260506165830 27 123 0.0 0.0 0.00 0.00 0.00 80 1012.2
20260506164830 27 142 0.0 6.4 0.00 0.00 0.00 79 1012.3
20260506163830 27 220 1.6 6.4 0.00 0.00 0.00 79 1012.3
20260506162829 27 99 4.8 9.7 0.00 0.00 0.00 80 1012.0
20260506161829 27 170 3.2 8.0 0.00 0.00 0.00 80 1011.7
20260506160829 27 97 0.0 9.7 0.00 0.00 0.00 81 1011.5
20260506155829 27 119 1.6 4.8 0.00 0.00 0.00 82 1011.4
20260506154829 27 103 0.0 9.7 0.00 0.00 0.00 83 1011.3
20260506153829 26 95 0.0 6.4 0.00 0.00 0.00 83 1011.3
20260506152829 26 165 0.0 0.0 0.00 0.00 0.00 84 1011.3
20260506151829 26 165 0.0 0.0 0.00 0.00 0.00 84 1011.3
20260506150829 26 165 0.0 0.0 0.00 0.00 0.00 84 1011.6
20260506145829 26 165 0.0 0.0 0.00 0.00 0.00 85 1011.5
20260506144828 26 165 0.0 6.4 0.00 0.00 0.00 85 1011.2
20260506143828 25 106 3.2 4.8 0.00 0.00 0.00 85 1011.1
20260506142829 25 84 0.0 4.8 0.00 0.00 0.00 85 1010.9
20260506141828 25 82 0.0 6.4 0.00 0.00 0.00 86 1010.9
20260506140828 25 179 0.0 8.0 0.00 0.00 0.00 86 1010.9
20260506135828 25 172 3.2 9.7 0.00 0.00 0.00 86 1011.0
20260506134828 25 128 6.4 6.4 0.00 0.00 0.00 86 1011.0
20260506133828 25 161 3.2 4.8 0.00 0.00 0.00 86 1011.1
20260506132828 25 123 0.0 3.2 0.00 0.00 0.00 86 1011.1
20260506131828 25 88 0.0 6.4 0.00 0.00 0.00 86 1011.1
20260506130828 25 119 3.2 6.4 0.00 0.00 0.00 86 1011.0
20260506125827 25 215 0.0 3.2 0.00 0.00 0.00 86 1011.0
20260506124827 25 147 1.6 6.4 0.00 0.00 0.00 86 1010.9
20260506123827 25 144 0.0 4.8 0.00 0.00 0.00 85 1010.8
20260506122828 25 159 0.0 4.8 0.00 0.00 0.00 85 1010.8
20260506121827 25 134 0.0 4.8 0.00 0.00 0.00 85 1010.6
20260506120827 25 146 0.0 3.2 0.00 0.00 0.00 85 1010.6
20260506115827 25 153 3.2 6.4 0.00 0.00 0.00 85 1010.6
20260506114827 25 140 3.2 3.2 0.00 0.00 0.00 85 1010.4
20260506113827 25 130 1.6 6.4 0.00 0.00 0.00 85 1010.4
20260506112827 25 209 0.0 3.2 0.00 0.00 0.00 85 1010.4
20260506111827 25 146 1.6 6.4 0.00 0.00 0.00 85 1010.3
20260506110827 25 188 0.0 1.6 0.00 0.00 0.00 85 1010.3
20260506105827 25 169 0.0 4.8 0.00 0.00 0.00 85 1010.2
20260506104827 25 160 0.0 11.3 0.00 0.00 0.00 85 1010.1
20260506103827 25 171 3.2 12.9 0.00 0.00 0.00 85 1009.8
20260506102826 25 103 3.2 12.9 0.00 0.00 0.00 85 1009.7
20260506101826 25 213 1.6 4.8 0.00 0.00 0.00 85 1009.8
20260506100826 25 148 1.6 3.2 0.00 0.00 0.00 85 1009.7
20260506095826 25 109 0.0 4.8 0.00 0.00 0.00 85 1009.7
20260506094827 25 129 1.6 9.7 0.00 0.00 0.00 85 1009.7
20260506093827 25 119 6.4 6.4 0.00 0.00 0.00 85 1009.5
20260506092826 25 154 1.6 9.7 0.00 0.00 0.00 85 1009.4
20260506091826 25 115 0.0 6.4 0.00 0.00 0.00 85 1009.3
20260506090826 25 115 0.0 8.0 0.00 0.00 0.00 85 1009.3
20260506085826 25 173 3.2 8.0 0.00 0.00 0.00 85 1009.2